sat.trackr.live / text

‹ back to catalog

STARLINK-4559

NORAD 53574 · 2022-101AZ

PAYLOAD ACTIVE UNKNOWN

§ Identity

Operator
Country
US
Launch date
2022-08-19
Launch site
AFETR
Launch vehicle
Mass (kg)
RCS (m²)

Purposes: comms

External: N2YO · Heavens-Above · Gunter

§ Orbital elements

Epoch: 2026-09-20T02:38:47.461056Z

Period
93.85 min
Inclination
53.1585°
Eccentricity
0.0001310
Mean motion
15.34391172 rev/d
Perigee alt
461.8 km
Apogee alt
463.6 km
Semi-major
6,840.9 km
B*
1.6730e-5
RAAN
245.4101°
Arg perigee
89.4952°
Mean anomaly
270.6200°
Rev number
22,601

§ Raw data

STARLINK-45591 53574U 22101AZ  26263.11027154  .00000189  00000+0  16730-4 0  99982 53574  53.1585 245.4101 0001310  89.4952 270.6200 15.34391172226016

JSON: /api/v1/satellites/53574 · /tle

For live sub-satellite position, see the globe view (requires WebGL).

§ Visibility from observer

Set your observer location to see the next 7 days of passes ≥ 10°. The values pass through the URL so the page stays shareable.

No JS? Fill the form by hand. The geolocation button needs JavaScript.